DLH9901 EINN-EDDM

Flight info

Callsign DLH9901
Flight time 2h 2m
Altitude 39000
Route ABAGU3A ABAGU DCT ENJEX DCT AVZAC DCT ICOSA DCT RUHUN DCT UNZIB DCT NUCHU L607 KONAN DCT KOK UL607 MATUG DCT MOVUM T109 HAREM/N0465F350 T104 ELMOX/N0420F270 T104 ROKIL ROKIL1A
Aircraft A388/J-SADE2E3FGHIJ3J4J5M1RWXY/LB1D1

Departure

Time 2026-04-30 19:19
Airport Shannon Airport (EINN)

Arrival

Time 2026-04-30 21:21
Airport Munich Airport (EDDM)
Time Latitude Longitude Altitude Speed Heading
2026-04-30 18:22 52.69815 -8.90891 0 ft 0 kts 260°
2026-04-30 19:02 52.69808 -8.90960 28 ft 15 kts 260°
2026-04-30 19:03 52.69797 -8.91060 27 ft 2 kts 259°
2026-04-30 19:03 52.69756 -8.91246 28 ft 11 kts 214°
2026-04-30 19:04 52.69717 -8.91431 27 ft 14 kts 302°
2026-04-30 19:04 52.69820 -8.91674 27 ft 0 kts 308°
2026-04-30 19:05 52.69823 -8.91680 27 ft 3 kts 308°
2026-04-30 19:05 52.69784 -8.91836 28 ft 19 kts 214°
2026-04-30 19:06 52.69551 -8.92103 28 ft 16 kts 216°
2026-04-30 19:06 52.69506 -8.92205 27 ft 12 kts 266°
2026-04-30 19:06 52.69591 -8.92431 27 ft 8 kts 314°
2026-04-30 19:07 52.69602 -8.92448 27 ft 0 kts 315°
2026-04-30 19:08 52.69604 -8.92452 27 ft 0 kts 316°
2026-04-30 19:08 52.69629 -8.92492 27 ft 9 kts 316°
2026-04-30 19:09 52.69773 -8.92725 28 ft 8 kts 315°
2026-04-30 19:09 52.69793 -8.92757 28 ft 0 kts 315°
2026-04-30 19:11 52.69800 -8.92769 28 ft 11 kts 315°
2026-04-30 19:12 52.69864 -8.92873 31 ft 9 kts 315°
2026-04-30 19:12 52.69872 -8.92885 32 ft 0 kts 315°
2026-04-30 19:15 52.69888 -8.92911 34 ft 11 kts 315°
2026-04-30 19:15 52.69883 -8.93154 45 ft 18 kts 233°
2026-04-30 19:15 52.69781 -8.93376 46 ft 29 kts 232°
2026-04-30 19:16 52.69657 -8.93641 46 ft 29 kts 232°
2026-04-30 19:16 52.69535 -8.93896 49 ft 27 kts 231°
2026-04-30 19:16 52.69332 -8.94222 50 ft 8 kts 202°
2026-04-30 19:17 52.69308 -8.94257 49 ft 1 kts 266°
2026-04-30 19:17 52.69337 -8.94298 48 ft 9 kts 31°
2026-04-30 19:17 52.69378 -8.94230 48 ft 0 kts 51°
2026-04-30 19:18 52.69386 -8.94214 52 ft 18 kts 51°
2026-04-30 19:18 52.70064 -8.92776 42 ft 158 kts 52°
2026-04-30 19:18 52.70813 -8.91265 384 ft 176 kts 53°
2026-04-30 19:19 52.71598 -8.89663 907 ft 184 kts 55°
2026-04-30 19:19 52.72354 -8.87928 1414 ft 188 kts 64°
2026-04-30 19:19 52.72359 -8.83732 1870 ft 205 kts 112°
2026-04-30 19:20 52.71896 -8.81380 2311 ft 226 kts 110°
2026-04-30 19:20 52.71420 -8.78806 2834 ft 246 kts 109°
2026-04-30 19:20 52.70418 -8.73179 4462 ft 261 kts 108°
2026-04-30 19:21 52.70077 -8.71266 4807 ft 264 kts 108°
2026-04-30 19:21 52.68856 -8.64473 6749 ft 264 kts 110°
2026-04-30 19:22 52.67797 -8.58620 8648 ft 269 kts 111°
2026-04-30 19:22 52.66347 -8.50650 10724 ft 288 kts 111°
2026-04-30 19:23 52.64457 -8.40323 12129 ft 326 kts 111°
2026-04-30 19:24 52.63144 -8.33123 13639 ft 332 kts 111°
2026-04-30 19:24 52.62472 -8.29469 14321 ft 335 kts 111°
2026-04-30 19:24 52.61111 -8.22090 15668 ft 340 kts 111°
2026-04-30 19:25 52.59018 -8.10796 17643 ft 348 kts 112°
2026-04-30 19:26 52.57589 -8.03128 18822 ft 354 kts 112°
2026-04-30 19:26 52.56130 -7.95334 19794 ft 361 kts 112°
2026-04-30 19:26 52.55390 -7.91392 20339 ft 363 kts 112°
2026-04-30 19:27 52.53889 -7.83415 21372 ft 368 kts 112°
2026-04-30 19:27 52.52362 -7.75343 22407 ft 373 kts 112°
2026-04-30 19:28 52.51588 -7.71263 22917 ft 375 kts 112°
2026-04-30 19:28 52.49924 -7.63095 23856 ft 378 kts 117°
2026-04-30 19:29 52.47769 -7.55214 24698 ft 382 kts 118°
2026-04-30 19:29 52.46686 -7.51200 25109 ft 385 kts 118°
2026-04-30 19:30 52.43387 -7.39018 26249 ft 397 kts 118°
2026-04-30 19:30 52.41119 -7.30695 27193 ft 403 kts 118°
2026-04-30 19:31 52.38806 -7.22246 28168 ft 410 kts 118°
2026-04-30 19:31 52.37632 -7.17968 28663 ft 413 kts 118°
2026-04-30 19:31 52.35253 -7.09321 29660 ft 420 kts 119°
2026-04-30 19:32 52.34046 -7.04949 30148 ft 424 kts 119°
2026-04-30 19:32 52.32826 -7.00536 30572 ft 427 kts 119°
2026-04-30 19:32 52.31595 -6.96089 31017 ft 431 kts 119°
2026-04-30 19:32 52.30354 -6.91619 31360 ft 436 kts 118°
2026-04-30 19:33 52.29088 -6.87069 31660 ft 442 kts 118°
2026-04-30 19:33 52.27814 -6.82494 32127 ft 444 kts 118°
2026-04-30 19:33 52.26530 -6.77891 32519 ft 447 kts 118°
2026-04-30 19:33 52.25234 -6.73256 32935 ft 451 kts 118°
2026-04-30 19:34 52.23924 -6.68585 33343 ft 454 kts 118°
2026-04-30 19:34 52.22605 -6.63887 33754 ft 457 kts 118°
2026-04-30 19:34 52.19931 -6.54394 34490 ft 464 kts 118°
2026-04-30 19:35 52.18577 -6.49600 34881 ft 466 kts 118°
2026-04-30 19:35 52.17218 -6.44798 35346 ft 466 kts 118°
2026-04-30 19:35 52.15858 -6.40002 35789 ft 467 kts 118°
2026-04-30 19:35 52.14490 -6.35188 36108 ft 470 kts 117°
2026-04-30 19:36 52.13115 -6.30361 36570 ft 470 kts 117°
2026-04-30 19:36 52.11739 -6.25540 37057 ft 469 kts 117°
2026-04-30 19:36 52.09004 -6.15987 37978 ft 469 kts 117°
2026-04-30 19:37 52.07634 -6.11218 38429 ft 469 kts 117°
2026-04-30 19:37 52.06255 -6.06423 38845 ft 469 kts 117°
2026-04-30 19:37 52.04870 -6.01606 39043 ft 473 kts 117°
2026-04-30 19:37 52.03497 -5.96741 39075 ft 472 kts 116°
2026-04-30 19:38 52.00783 -5.87041 39061 ft 473 kts 116°
2026-04-30 19:38 51.98041 -5.77313 39080 ft 474 kts 117°
2026-04-30 19:39 51.95285 -5.67598 39081 ft 474 kts 117°
2026-04-30 19:39 51.92522 -5.57902 39081 ft 474 kts 117°
2026-04-30 19:40 51.89752 -5.48221 39081 ft 474 kts 117°
2026-04-30 19:40 51.86975 -5.38555 39083 ft 473 kts 117°
2026-04-30 19:41 51.84191 -5.28904 39082 ft 473 kts 117°
2026-04-30 19:41 51.81400 -5.19271 39087 ft 473 kts 117°
2026-04-30 19:42 51.78688 -5.09591 39087 ft 474 kts 113°
2026-04-30 19:42 51.76818 -4.99350 39085 ft 478 kts 104°
2026-04-30 19:43 51.75596 -4.88805 39085 ft 478 kts 103°
2026-04-30 19:44 51.73714 -4.73026 39096 ft 478 kts 103°
2026-04-30 19:44 51.72442 -4.62512 39098 ft 477 kts 103°
2026-04-30 19:45 51.71161 -4.52006 39093 ft 477 kts 103°
2026-04-30 19:45 51.69871 -4.41507 39101 ft 477 kts 103°
2026-04-30 19:46 51.68572 -4.31013 39107 ft 477 kts 104°
2026-04-30 19:46 51.67272 -4.20595 39110 ft 476 kts 104°
2026-04-30 19:47 51.65957 -4.10134 39106 ft 476 kts 104°
2026-04-30 19:47 51.64634 -3.99694 39108 ft 476 kts 104°
2026-04-30 19:48 51.63306 -3.89290 39107 ft 476 kts 104°
2026-04-30 19:48 51.61973 -3.78919 39107 ft 476 kts 104°
2026-04-30 19:49 51.60622 -3.68495 39119 ft 476 kts 104°
2026-04-30 19:49 51.59043 -3.52709 39125 ft 479 kts 97°
2026-04-30 19:50 51.58443 -3.42105 39133 ft 479 kts 98°
2026-04-30 19:50 51.57813 -3.31437 39120 ft 479 kts 98°
2026-04-30 19:51 51.57171 -3.20765 39123 ft 479 kts 98°
2026-04-30 19:51 51.56521 -3.10101 39205 ft 480 kts 98°
2026-04-30 19:52 51.55862 -2.99425 39217 ft 480 kts 98°
2026-04-30 19:52 51.55192 -2.88751 39214 ft 480 kts 98°
2026-04-30 19:53 51.54513 -2.78095 39149 ft 479 kts 98°
2026-04-30 19:53 51.53826 -2.67464 39138 ft 478 kts 98°
2026-04-30 19:54 51.53130 -2.56839 39141 ft 478 kts 98°
2026-04-30 19:54 51.52426 -2.46241 39143 ft 477 kts 98°
2026-04-30 19:55 51.51712 -2.35656 39162 ft 476 kts 98°
2026-04-30 19:55 51.50991 -2.25100 39161 ft 475 kts 98°
2026-04-30 19:56 51.50262 -2.14560 39148 ft 475 kts 98°
2026-04-30 19:56 51.49523 -2.04033 39149 ft 474 kts 99°
2026-04-30 19:57 51.48778 -1.93519 39148 ft 474 kts 99°
2026-04-30 19:57 51.48021 -1.83027 39168 ft 473 kts 98°
2026-04-30 19:58 51.47256 -1.72542 39165 ft 473 kts 98°
2026-04-30 19:58 51.46162 -1.62173 39167 ft 471 kts 104°
2026-04-30 19:59 51.44760 -1.51996 39168 ft 471 kts 104°
2026-04-30 20:00 51.42652 -1.36622 39167 ft 471 kts 104°
2026-04-30 20:00 51.41230 -1.26365 39175 ft 472 kts 104°
2026-04-30 20:01 51.39402 -1.10795 39184 ft 474 kts 96°
2026-04-30 20:01 51.38894 -1.00317 39184 ft 475 kts 96°
2026-04-30 20:02 51.38068 -0.84447 39188 ft 475 kts 97°
2026-04-30 20:03 51.37226 -0.68716 39192 ft 475 kts 97°
2026-04-30 20:03 51.36651 -0.58179 39191 ft 475 kts 97°
2026-04-30 20:04 51.36066 -0.47641 39190 ft 475 kts 97°
2026-04-30 20:05 51.35172 -0.31863 39189 ft 475 kts 97°
2026-04-30 20:05 51.34258 -0.16100 39194 ft 474 kts 97°
2026-04-30 20:06 51.33638 -0.05612 39195 ft 474 kts 97°
2026-04-30 20:06 51.32967 0.04877 39198 ft 473 kts 100°
2026-04-30 20:07 51.31971 0.15276 39170 ft 474 kts 100°
2026-04-30 20:08 51.30503 0.30911 39166 ft 475 kts 100°
2026-04-30 20:08 51.29673 0.39584 39165 ft 475 kts 100°
2026-04-30 20:09 51.28662 0.50037 39159 ft 475 kts 100°
2026-04-30 20:09 51.27131 0.65669 39179 ft 475 kts 100°
2026-04-30 20:10 51.25580 0.81297 39195 ft 475 kts 101°
2026-04-30 20:11 51.24008 0.96908 39221 ft 474 kts 100°
2026-04-30 20:11 51.22952 1.07278 39233 ft 473 kts 101°
2026-04-30 20:12 51.21354 1.22788 39225 ft 472 kts 101°
2026-04-30 20:13 51.20280 1.33104 39219 ft 471 kts 101°
2026-04-30 20:13 51.19205 1.43327 39210 ft 471 kts 101°
2026-04-30 20:14 51.18116 1.53600 39229 ft 470 kts 101°
2026-04-30 20:14 51.17019 1.63852 39224 ft 469 kts 101°
2026-04-30 20:15 51.15916 1.74085 39222 ft 468 kts 101°
2026-04-30 20:15 51.14804 1.84304 39217 ft 468 kts 101°
2026-04-30 20:16 51.13685 1.94507 39208 ft 467 kts 101°
2026-04-30 20:16 51.12793 2.04754 39204 ft 468 kts 96°
2026-04-30 20:17 51.12267 2.15084 39206 ft 469 kts 96°
2026-04-30 20:17 51.11716 2.25420 39211 ft 469 kts 96°
2026-04-30 20:18 51.11147 2.35767 39223 ft 469 kts 96°
2026-04-30 20:18 51.10566 2.46123 39207 ft 471 kts 96°
2026-04-30 20:19 51.09974 2.56517 39215 ft 472 kts 96°
2026-04-30 20:19 51.09087 2.66820 39234 ft 471 kts 103°
2026-04-30 20:20 51.07347 2.76897 39244 ft 471 kts 107°
2026-04-30 20:20 51.05541 2.86852 39226 ft 472 kts 107°
2026-04-30 20:21 51.03717 2.96880 39232 ft 473 kts 107°
2026-04-30 20:21 51.01866 3.06973 39239 ft 473 kts 107°
2026-04-30 20:22 51.00028 3.16931 39234 ft 474 kts 107°
2026-04-30 20:22 50.98169 3.26951 39249 ft 473 kts 107°
2026-04-30 20:23 50.96302 3.36957 39275 ft 472 kts 107°
2026-04-30 20:23 50.94433 3.46927 39283 ft 471 kts 107°
2026-04-30 20:24 50.92558 3.56869 39264 ft 470 kts 107°
2026-04-30 20:24 50.90676 3.66792 39256 ft 470 kts 107°
2026-04-30 20:25 50.87815 3.81612 39265 ft 469 kts 107°
2026-04-30 20:26 50.84945 3.96376 39268 ft 467 kts 107°
2026-04-30 20:26 50.82065 4.11083 39284 ft 466 kts 108°
2026-04-30 20:27 50.78202 4.30638 39268 ft 466 kts 108°
2026-04-30 20:28 50.74305 4.50172 39269 ft 466 kts 108°
2026-04-30 20:30 50.69490 4.74599 39274 ft 467 kts 107°
2026-04-30 20:31 50.63695 5.03816 39281 ft 467 kts 108°
2026-04-30 20:32 50.58650 5.28144 39286 ft 468 kts 108°
2026-04-30 20:33 50.55605 5.42732 39288 ft 468 kts 108°
2026-04-30 20:34 50.52544 5.57291 39287 ft 468 kts 108°
2026-04-30 20:35 50.50215 5.72127 39290 ft 466 kts 101°
2026-04-30 20:35 50.48289 5.87102 39297 ft 466 kts 101°
2026-04-30 20:36 50.46984 5.97059 39297 ft 466 kts 101°
2026-04-30 20:37 50.45014 6.11975 39304 ft 465 kts 101°
2026-04-30 20:37 50.43692 6.21906 39301 ft 465 kts 101°
2026-04-30 20:38 50.42364 6.31812 39295 ft 464 kts 101°
2026-04-30 20:38 50.40732 6.41604 39292 ft 465 kts 107°
2026-04-30 20:39 50.37729 6.56050 39289 ft 465 kts 106°
2026-04-30 20:40 50.34729 6.70512 39313 ft 466 kts 107°
2026-04-30 20:40 50.32713 6.80157 39327 ft 466 kts 107°
2026-04-30 20:41 50.29669 6.94622 39347 ft 467 kts 106°
2026-04-30 20:41 50.27629 7.04265 39352 ft 467 kts 107°
2026-04-30 20:42 50.25592 7.13843 39355 ft 467 kts 107°
2026-04-30 20:43 50.22505 7.28280 39348 ft 467 kts 107°
2026-04-30 20:43 50.20437 7.37887 39353 ft 467 kts 106°
2026-04-30 20:44 50.17320 7.52292 39350 ft 467 kts 106°
2026-04-30 20:45 50.13144 7.71435 39353 ft 466 kts 107°
2026-04-30 20:45 50.11045 7.80988 39362 ft 466 kts 106°
2026-04-30 20:46 50.06829 8.00046 39355 ft 465 kts 106°
2026-04-30 20:47 50.03649 8.14308 39356 ft 465 kts 106°
2026-04-30 20:48 50.00454 8.28536 39367 ft 465 kts 106°
2026-04-30 20:48 49.98316 8.38007 39363 ft 464 kts 106°
2026-04-30 20:49 49.96168 8.47465 39350 ft 464 kts 107°
2026-04-30 20:50 49.91917 8.61027 39345 ft 468 kts 116°
2026-04-30 20:50 49.88675 8.69781 39342 ft 468 kts 116°
2026-04-30 20:51 49.85443 8.78535 39346 ft 468 kts 116°
2026-04-30 20:51 49.80571 8.91627 39347 ft 468 kts 116°
2026-04-30 20:52 49.77317 9.00342 39344 ft 467 kts 116°
2026-04-30 20:53 49.72450 9.13332 39329 ft 468 kts 116°
2026-04-30 20:53 49.69180 9.22021 39332 ft 468 kts 116°
2026-04-30 20:54 49.64260 9.35040 39334 ft 468 kts 116°
2026-04-30 20:55 49.59241 9.46077 39335 ft 474 kts 127°
2026-04-30 20:55 49.54853 9.53710 39328 ft 476 kts 127°
2026-04-30 20:56 49.48312 9.65148 39340 ft 477 kts 127°
2026-04-30 20:57 49.41709 9.76652 39349 ft 479 kts 127°
2026-04-30 20:57 49.37297 9.84309 39356 ft 479 kts 127°
2026-04-30 20:58 49.30650 9.95774 39134 ft 477 kts 126°
2026-04-30 20:58 49.28441 9.99571 38431 ft 478 kts 126°
2026-04-30 20:58 49.26219 10.03390 37447 ft 482 kts 126°
2026-04-30 20:59 49.21727 10.11094 35687 ft 485 kts 127°
2026-04-30 20:59 49.19497 10.14902 34963 ft 482 kts 127°
2026-04-30 21:00 49.14975 10.22630 32847 ft 489 kts 127°
2026-04-30 21:00 49.10412 10.30164 31520 ft 477 kts 128°
2026-04-30 21:01 49.05871 10.37380 30215 ft 465 kts 128°
2026-04-30 21:01 49.03649 10.40924 29471 ft 460 kts 128°
2026-04-30 21:01 48.99281 10.47910 28022 ft 451 kts 128°
2026-04-30 21:02 48.97124 10.51351 27302 ft 446 kts 128°
2026-04-30 21:02 48.94991 10.54748 26594 ft 442 kts 128°
2026-04-30 21:02 48.92873 10.58117 25926 ft 438 kts 128°
2026-04-30 21:02 48.90772 10.61458 25188 ft 436 kts 128°
2026-04-30 21:03 48.88685 10.64774 24530 ft 432 kts 128°
2026-04-30 21:03 48.86615 10.68057 23853 ft 429 kts 129°
2026-04-30 21:03 48.84587 10.71270 23112 ft 425 kts 129°
2026-04-30 21:03 48.82524 10.74532 22367 ft 421 kts 129°
2026-04-30 21:04 48.80535 10.77674 21657 ft 417 kts 129°
2026-04-30 21:04 48.78529 10.80831 20915 ft 414 kts 129°
2026-04-30 21:04 48.74556 10.87059 19558 ft 407 kts 129°
2026-04-30 21:05 48.72594 10.90129 18901 ft 404 kts 129°
2026-04-30 21:05 48.70649 10.93170 18210 ft 400 kts 129°
2026-04-30 21:05 48.68726 10.96173 17600 ft 394 kts 129°
2026-04-30 21:05 48.66827 10.99133 16932 ft 390 kts 130°
2026-04-30 21:06 48.64946 11.02061 16237 ft 386 kts 130°
2026-04-30 21:06 48.63079 11.04965 15604 ft 382 kts 130°
2026-04-30 21:06 48.61237 11.07826 14976 ft 378 kts 130°
2026-04-30 21:06 48.59412 11.10655 14343 ft 374 kts 130°
2026-04-30 21:07 48.57503 11.13323 13672 ft 373 kts 137°
2026-04-30 21:07 48.55392 11.15568 13032 ft 369 kts 142°
2026-04-30 21:07 48.53507 11.18101 12376 ft 359 kts 125°
2026-04-30 21:07 48.52324 11.21327 11750 ft 347 kts 106°
2026-04-30 21:08 48.51938 11.24859 10851 ft 340 kts 86°
2026-04-30 21:08 48.52390 11.28278 10364 ft 324 kts 73°
2026-04-30 21:08 48.52966 11.31450 10133 ft 303 kts 76°
2026-04-30 21:08 48.53405 11.34447 9940 ft 282 kts 79°
2026-04-30 21:09 48.53546 11.37309 9751 ft 270 kts 95°
2026-04-30 21:09 48.52997 11.40016 9457 ft 276 kts 118°
2026-04-30 21:09 48.51710 11.42125 9190 ft 276 kts 143°
2026-04-30 21:09 48.49935 11.43188 8891 ft 278 kts 169°
2026-04-30 21:10 48.48014 11.42985 8607 ft 280 kts 195°
2026-04-30 21:10 48.46329 11.41532 8316 ft 282 kts 222°
2026-04-30 21:10 48.45039 11.39330 8032 ft 279 kts 227°
2026-04-30 21:10 48.43766 11.37146 7769 ft 276 kts 226°
2026-04-30 21:11 48.42470 11.34970 7499 ft 282 kts 226°
2026-04-30 21:11 48.41166 11.32787 7229 ft 278 kts 226°
2026-04-30 21:11 48.39886 11.30643 7047 ft 271 kts 226°
2026-04-30 21:11 48.38656 11.28573 6942 ft 260 kts 226°
2026-04-30 21:12 48.37406 11.26694 6852 ft 247 kts 210°
2026-04-30 21:12 48.35864 11.25873 6770 ft 229 kts 178°
2026-04-30 21:12 48.34386 11.26361 6624 ft 213 kts 145°
2026-04-30 21:12 48.33350 11.27865 6395 ft 206 kts 124°
2026-04-30 21:13 48.32507 11.29555 6193 ft 203 kts 124°
2026-04-30 21:13 48.31674 11.31264 5963 ft 201 kts 119°
2026-04-30 21:13 48.31148 11.33203 5740 ft 197 kts 99°
2026-04-30 21:13 48.31053 11.35248 5607 ft 197 kts 89°
2026-04-30 21:14 48.31149 11.37278 5498 ft 195 kts 85°
2026-04-30 21:14 48.31295 11.39297 5415 ft 192 kts 84°
2026-04-30 21:14 48.31451 11.41258 5447 ft 187 kts 84°
2026-04-30 21:14 48.31597 11.43145 5293 ft 175 kts 85°
2026-04-30 21:15 48.31732 11.44888 5068 ft 161 kts 85°
2026-04-30 21:15 48.31860 11.46530 5001 ft 157 kts 85°
2026-04-30 21:15 48.31984 11.48154 5000 ft 156 kts 84°
2026-04-30 21:15 48.32108 11.49772 4915 ft 156 kts 84°
2026-04-30 21:16 48.32233 11.51378 4703 ft 154 kts 84°
2026-04-30 21:16 48.32352 11.52919 4507 ft 141 kts 85°
2026-04-30 21:16 48.32460 11.54333 4315 ft 133 kts 85°
2026-04-30 21:16 48.32567 11.55704 4134 ft 131 kts 85°
2026-04-30 21:17 48.32670 11.57046 3949 ft 129 kts 85°
2026-04-30 21:17 48.32773 11.58379 3786 ft 128 kts 85°
2026-04-30 21:17 48.32877 11.59714 3610 ft 128 kts 84°
2026-04-30 21:17 48.32978 11.61028 3440 ft 126 kts 85°
2026-04-30 21:18 48.33080 11.62345 3261 ft 127 kts 85°
2026-04-30 21:18 48.33182 11.63674 3090 ft 129 kts 85°
2026-04-30 21:18 48.33284 11.64998 2910 ft 126 kts 86°
2026-04-30 21:18 48.33384 11.66314 2747 ft 129 kts 86°
2026-04-30 21:19 48.33497 11.67672 2541 ft 132 kts 83°
2026-04-30 21:19 48.33621 11.69071 2346 ft 138 kts 84°
2026-04-30 21:19 48.33729 11.70520 2139 ft 141 kts 83°
2026-04-30 21:19 48.33837 11.71982 1925 ft 141 kts 84°
2026-04-30 21:20 48.33942 11.73433 1733 ft 139 kts 83°
2026-04-30 21:20 48.34057 11.74870 1569 ft 138 kts 84°
2026-04-30 21:20 48.34162 11.76258 1479 ft 119 kts 85°
2026-04-30 21:20 48.34236 11.77266 1485 ft 79 kts 83°
2026-04-30 21:21 48.34289 11.77959 1486 ft 55 kts 83°
2026-04-30 21:21 48.34338 11.78249 1477 ft 20 kts 64°
2026-04-30 21:21 48.34452 11.78503 1475 ft 7 kts 53°
2026-04-30 21:22 48.34482 11.78562 1483 ft 7 kts 53°
2026-04-30 21:22 48.34520 11.78637 1475 ft 1 kts 53°
2026-04-30 21:23 48.34556 11.78707 1475 ft 14 kts 37°
2026-04-30 21:23 48.34625 11.78736 1481 ft 10 kts 360°
2026-04-30 21:23 48.34707 11.78617 1490 ft 10 kts 274°
2026-04-30 21:24 48.34708 11.78495 1480 ft 14 kts 264°
2026-04-30 21:24 48.34696 11.78337 1479 ft 17 kts 263°
2026-04-30 21:24 48.34681 11.78144 1481 ft 20 kts 263°
2026-04-30 21:24 48.34664 11.77922 1485 ft 23 kts 263°
2026-04-30 21:25 48.34628 11.77450 1484 ft 20 kts 263°
2026-04-30 21:25 48.34614 11.77265 1487 ft 16 kts 263°
2026-04-30 21:25 48.34602 11.77096 1490 ft 17 kts 263°
2026-04-30 21:26 48.34577 11.76775 1485 ft 12 kts 263°
2026-04-30 21:26 48.34597 11.76688 1481 ft 9 kts 337°
2026-04-30 21:27 48.34733 11.76631 1482 ft 8 kts 292°
2026-04-30 21:27 48.34734 11.76497 1484 ft 20 kts 261°
2026-04-30 21:27 48.34714 11.76275 1483 ft 18 kts 263°
2026-04-30 21:28 48.34692 11.75993 1479 ft 7 kts 253°
2026-04-30 21:28 48.34657 11.75959 1488 ft 8 kts 180°
2026-04-30 21:28 48.34620 11.75963 1490 ft 0 kts 174°
2026-04-30 21:31 48.34737 11.75946 1493 ft 0 kts 174°
2026-04-30 21:31 48.34755 11.75844 1490 ft 0 kts 354°